EW9276 Weather Reports


time (UTC)temp
C
wind
direction
speed
KPH
gust
KPH
rain 1hr
cm
rain 24hr
cm
rain mn
cm
humidity
%
barometer
mb
20260508160728 18 182 9.7 12.9 0.00 0.00 0.00 48 1014.0
20260508155224 -17 0.0 24.1 0.00 0.00 0.00 1014.3
20260508153718 17 228 0.0 12.9 0.00 0.00 0.00 50 1014.7
20260508152214 17 272 4.8 8.0 0.00 0.00 0.00 50 1014.7
20260508150710 16 267 4.8 16.1 0.00 0.00 0.00 49 1014.8
20260508145205 16 356 0.0 16.1 0.00 0.00 0.00 50 1014.8
20260508145159 15 229 9.7 20.9 0.00 0.00 0.00 54 1014.8
20260508142157 13 184 0.0 16.1 0.00 0.00 0.00 57 1014.9
20260508140654 13 229 3.2 12.9 0.00 0.00 0.00 58 1015.0
20260508135152 12 146 3.2 8.0 0.00 0.00 0.00 67 1015.1
20260508133652 11 114 0.0 0.0 0.00 0.00 0.00 73 1015.2
20260508132150 10 52 0.0 8.0 0.00 0.00 0.00 77 1015.1
20260508130649 9 129 0.0 12.9 0.00 0.00 0.00 78 1015.3
20260508125150 8 204 3.2 12.9 0.00 0.00 0.00 80 1015.2
20260508123649 7 121 1.6 8.0 0.00 0.00 0.00 83 1015.2
20260508122153 5 124 0.0 8.0 0.00 0.00 0.00 89 1015.2
20260508122149 7 177 0.0 3.2 0.00 0.00 0.00 85 1015.3
20260508120646 6 59 6.4 16.1 0.00 0.00 0.00 86 1015.3
20260508113640 4 80 0.0 3.2 0.00 0.00 0.00 94 1015.0
20260508112136 4 118 0.0 8.0 0.00 0.00 0.00 95 1014.8
20260508110638 3 109 0.0 0.0 0.00 0.00 0.00 99 1014.8
20260508110634 3 129 0.0 3.2 0.00 0.00 0.00 98 1015.0
20260508103633 3 128 0.0 0.0 0.00 0.00 0.00 99 1014.8
20260508102134 3 132 0.0 0.0 0.00 0.00 0.00 99 1014.7
20260508102129 3 91 0.0 0.0 0.00 0.00 0.00 99 1014.6
20260508095126 3 124 0.0 0.0 0.00 0.00 0.00 99 1014.6
20260508093622 3 122 0.0 0.0 0.00 0.00 0.00 99 1014.7
20260508092121 3 128 0.0 0.0 0.00 0.00 0.00 99 1014.5
20260508090617 3 138 0.0 0.0 0.00 0.00 0.00 99 1014.5
20260508085118 3 134 0.0 0.0 0.00 0.00 0.00 98 1014.5
20260508083618 3 162 0.0 0.0 0.00 0.00 0.00 98 1014.4
20260508082117 3 153 0.0 0.0 0.00 0.00 0.00 98 1014.2
20260508080617 3 137 0.0 0.0 0.00 0.00 0.00 98 1014.3
20260508080612 4 176 0.0 0.0 0.00 0.00 0.00 98 1014.2
20260508073608 4 131 0.0 0.0 0.00 0.00 0.00 98 1014.3
20260508072105 4 169 0.0 0.0 0.00 0.00 0.00 97 1014.4
20260508070605 4 144 0.0 0.0 0.00 0.00 0.00 97 1014.4
20260508065103 4 97 0.0 3.2 0.00 0.00 0.00 97 1014.6
20260508063608 5 154 0.0 0.0 0.00 0.00 0.00 97 1014.6
20260508063603 4 104 0.0 0.0 0.00 0.00 0.00 97 1014.7
20260508060602 5 154 0.0 0.0 0.00 0.00 0.00 96 1014.7
20260508055059 5 133 0.0 0.0 0.00 0.00 0.00 96 1014.6
20260508053557 5 150 0.0 0.0 0.00 0.00 0.00 95 1014.8
20260508052053 5 176 0.0 0.0 0.00 0.00 0.00 93 1014.8
20260508050551 5 171 0.0 0.0 0.00 0.00 0.00 94 1014.9
20260508045053 6 107 0.0 0.0 0.00 0.00 0.00 93 1014.9
20260508045048 6 145 0.0 0.0 0.00 0.00 0.00 94 1014.9
20260508043653 6 70 0.0 0.0 0.00 0.00 0.00 91 1014.8
20260508040546 6 143 0.0 0.0 0.00 0.00 0.00 90 1014.7
20260508035045 6 140 0.0 0.0 0.00 0.00 0.00 89 1014.6
20260508033542 6 125 0.0 0.0 0.00 0.00 0.00 89 1014.8
20260508032038 7 121 0.0 0.0 0.00 0.00 0.00 87 1014.8
20260508030539 7 123 0.0 0.0 0.00 0.00 0.00 83 1014.7
20260508030533 -17 0.0 0.0 0.00 0.00 0.00 1014.6
20260508023527 8 143 0.0 0.0 0.00 0.00 0.00 78 1014.6
20260508022023 -17 0.0 0.0 0.00 0.00 0.00 1014.6
20260508020517 -17 0.0 0.0 0.00 0.00 0.00 1014.6
20260508015010 -17 0.0 16.1 0.00 0.00 0.00 1014.5
20260508013504 -17 0.0 0.0 0.00 0.00 0.00 1014.4
20260508011958 -17 0.0 0.0 0.00 0.00 0.00 1014.2
20260508010451 -17 0.0 0.0 0.00 0.00 0.00 1014.2
20260508004945 18 46 8.0 0.0 0.00 0.00 0.00 38 1014.1
20260508003439 -17 0.0 0.0 0.00 0.00 0.00 1013.9
20260508001936 13 319 0.0 0.0 0.00 0.00 0.00 47 1013.7
20260508001932 -17 0.0 0.0 0.00 0.00 0.00 1013.7
20260508000426 14 334 4.8 8.0 0.00 0.00 0.00 44 1013.7
20260507234918 -17 0.0 0.0 0.00 0.00 0.00 1013.6
20260507231911 15 3 4.8 8.0 0.00 0.00 0.00 44 1013.6
20260507230407 15 26 9.7 20.9 0.00 0.00 0.00 44 1013.4
20260507224902 -17 0.0 0.0 0.00 0.00 0.00 1013.6
20260507223355 -32 229 185.1 233.4 0.00 0.00 0.00 32 1013.4
20260507223344 -17 0.0 0.0 0.00 0.00 0.00 1013.6
20260507221949 -17 0.0 0.0 0.00 0.00 0.00 1013.6
20260507220337 15 301 16.1 40.2 0.00 0.00 0.00 42 1013.4
20260507213333 16 338 17.7 27.4 0.00 0.00 0.00 42 1013.2
20260507211829 -17 0.0 8.0 0.00 0.00 0.00 1013.1
20260507210323 16 41 9.7 12.9 0.00 0.00 0.00 45 1012.9
20260507204819 16 312 6.4 20.9 0.00 0.00 0.00 42 1012.8
20260507203317 16 347 9.7 16.1 0.00 0.00 0.00 42 1012.8
20260507201818 17 305 14.5 20.9 0.00 0.00 0.00 40 1013.1
20260507201813 17 315 9.7 27.4 0.00 0.00 0.00 42 1013.1
20260507194808 16 342 0.0 16.1 0.00 0.00 0.00 40 1013.1
20260507193304 -17 0.0 0.0 0.00 0.00 0.00 1013.3
20260507191800 20 16 8.0 16.1 0.00 0.00 0.00 41 1013.1
20260507191754 19 199 72.4 16.1 0.00 0.00 0.00 43 1013.3
20260507190249 20 25 6.4 24.1 0.00 0.00 0.00 41 1013.3
20260507184854 16 284 1.6 24.1 0.00 0.00 0.00 44 1013.4
20260507183241 16 64 9.7 24.1 0.00 0.00 0.00 40 1013.6
20260507180236 16 1 24.1 27.4 0.00 0.00 0.00 41 1013.4
20260507174738 16 320 20.9 24.1 0.00 0.00 0.00 45 1013.9
20260507174734 16 350 9.7 20.9 0.00 0.00 0.00 43 1013.8
20260507171734 15 273 6.4 27.4 0.00 0.00 0.00 46 1014.2
20260507171730 15 352 6.4 20.9 0.00 0.00 0.00 42 1014.0
20260507164728 15 305 3.2 37.0 0.00 0.00 0.00 48 1014.3
20260507163227 15 4 11.3 20.9 0.00 0.00 0.00 48 1014.3
20260507161730 15 342 1.6 16.1 0.00 0.00 0.00 45 1014.1
20260507161726 15 297 0.0 27.4 0.00 0.00 0.00 48 1014.4